User: anonymous   Login
Location: Walnut Point State Park
(39.6958°N, 88.0345°W)
Time: 06:26:56
(UTC-05:00)
Language:

Iridium 75 - Orbit

View from above orbital plane
View from above orbital plane
View from above satellite
View from above satellite

Ground track
Ground track

The orbit data is extracted from the following two-line orbital elements,

1 25346U 98032E   17148.80532577 +.00000149 +00000-0 +46066-4 0  9990
2 25346 086.3995 232.2014 0002376 095.1762 264.9705 14.34217693996629
Epoch (UTC): 28 May 2017 19:19:40
Eccentricity: 0.0002376
inclination: 86.3995°
perigee height: 776 km
apogee height: 779 km
right ascension of ascending node: 232.2014°
argument of perigee: 95.1762°
revolutions per day: 14.34217693
mean anomaly at epoch: 264.9705°
orbit number at epoch: 99662

The dashed part of the orbit path shows where the satellite is in the earth's shadow,  

DLR